Location: Cambridge (historical)
(38.6883°N, 119.0140°W)
Time: 13:12:01
(UTC+00:00)

Meteor 1-24 Rocket - Pass Details

Date: 29 October 2020
Orbit: 791 x 927 km, 81.3° (Epoch: 01 December)

Event Time Altitude Azimuth Distance (km) Brightness Sun altitude
Rises 12:07:12 0° 178° (S) 3,366 6.8 -26.5°
Reaches altitude 10° 12:09:34 10° 175° (S) 2,456 6.1 -26.0°
Maximum altitude 12:15:04 64° 95° (E) 959 4.1 -25.0°
Drops below altitude 10° 12:20:50 10° 15° (NNE) 2,564 6.4 -23.8°
Sets 12:23:21 0° 13° (NNE) 3,526 7.1 -23.3°
